Regional Weather Roundup
Issued by NWS San Diego, CA

Home | Current Version | Previous Version | Text Only | Print | Product List | Glossary On
Versions: 1 2 3 4 5 6 7 8 9 10 11 12 13 14 15 16 17 18 19 20 21 22 23 24 25 26 27 28 29 30 31 32 33 34 35 36 37 38 39 40 41 42 43 44 45 46 47 48 49 50
000
ASUS46 KSGX 010903
RWRSGX

SAN DIEGO HOURLY WEATHER ROUNDUP
NATIONAL WEATHER SERVICE SAN DIEGO CA
200 AM PDT WED OCT 01 2014

NOTE: "FAIR" INDICATES FEW OR NO CLOUDS BELOW 12,000 FEET WITH NO
SIGNIFICANT WEATHER AND/OR OBSTRUCTIONS TO VISIBILITY.

CAZ042-043-060-061-PZZ750-775-011000-

GREATER SAN DIEGO AREA

CITY           SKY/WX    TMP DP  RH WIND       PRES   REMARKS
LINDBERGH FLD  MOCLDY    70  63  78 S5        29.79S
POINT LOMA       N/A     67  64  91 S6          N/A
NATIONAL CITY    N/A     67  64  88 CALM      29.79S
CHULA VISTA      N/A     64  61  92 CALM      29.71S
IMPERIAL BEACH CLEAR     61  59  93 SE3       29.79R
BROWN FIELD    CLEAR     61  58  90 E3        29.79S
MIRAMAR MCAS   CLOUDY    68  62  81 S3        29.79R
MONTGOMERY FLD CLOUDY    68  63  84 CALM      29.79S

$$

NORTH SAN DIEGO COUNTY

CITY           SKY/WX    TMP DP  RH WIND       PRES   REMARKS
CAMP PENDLETON MOCLDY   N/A N/A N/A E3        29.78S
OCEANSIDE AP   CLOUDY    65  60  84 NE5       29.77S
OCEANSIDE HBR    N/A     66  63  91 E3        29.80S
VISTA            N/A     63  59  87 CALM      29.77R
CARLSBAD       CLOUDY    68  61  78 CALM      29.78S
DEL MAR          N/A     66  64  93 CALM      29.80S
LA JOLLA SCRIP   N/A     67  65  94 CALM      29.75S
FALLBROOK        N/A     63  63 100 CALM      29.79S
ESCONDIDO        N/A     63  56  77 CALM      29.80R
SAN MARCOS       N/A     62  57  84 CALM      29.76S
POWAY            N/A     59  54  84 CALM      29.79S

$$

EAST SAN DIEGO COUNTY

CITY           SKY/WX    TMP DP  RH WIND       PRES   REMARKS
RAMONA         CLEAR     53  48  83 CALM      29.81S
SANTEE LAKES     N/A     61  57  88 CALM      29.80S
LA MESA          N/A     66  64  93 CALM      29.72F
JAMUL            N/A     59  56  91 CALM      29.77S
MT. LAGUNA OBS   N/A     56  25  30 W6        29.58F
CAMPO            N/A     50  44  80 NE6       29.82S

$$

ORANGE COUNTY AND THE LOS ANGELES BASIN

CITY           SKY/WX    TMP DP  RH WIND       PRES   REMARKS
JOHN WAYNE AP  CLEAR     70  62  76 SE3       29.77S
LAKE FOREST FR   N/A     63  57  81 CALM      29.67F
SANTA ANA        N/A     66  62  86 CALM      29.72F
HUNTINGTON BCH   N/A     64  62  94 CALM      29.79S
LOS ALAMITOS   FAIR      65  63  93 E3        29.77S
FULLERTON      MOCLDY    68  63  84 SE3       29.76F
LONG BEACH     CLEAR     65  62  90 E3        29.76F
L.A. AP        PTCLDY    66  62  87 CALM      29.77S
L.A. DOWNTOWN  CLEAR     66  60  81 CALM      29.76S

$$

THE INLAND EMPIRE

CITY           SKY/WX    TMP DP  RH WIND       PRES   REMARKS
CORONA         CLEAR     57  54  90 CALM      29.79S
CHINO          CLEAR     62  57  83 CALM      29.79S
ONTARIO        CLEAR     65  54  67 N3        29.78F
RIVERSIDE AP   CLEAR     65  54  67 CALM      29.79S
RIV CYN CREST    N/A     65  60  82 S2        29.77S
MORENO VALLEY    N/A     63  52  68 CALM        N/A
MARCH ARB      CLEAR     59  48  67 CALM      29.81S
HORSETHIEF CYN   N/A     62  47  58 S3        29.80S
PERRIS           N/A     64  55  71 S3        29.79S
MENIFEE          N/A     64  58  81 CALM      29.86F
HEMET EAST       N/A     63  43  49 CALM      29.77S
FRENCH VALLEY  FAIR      61  54  77 CALM      29.82R
TEMECULA         N/A     61  56  83 CALM      29.78S

$$

SAN BERNARDINO AND RIVERSIDE COUNTY MOUNTAINS

CITY           SKY/WX    TMP DP  RH WIND       PRES   REMARKS
BIG BEAR AP    CLEAR     36  28  75 CALM      30.03F
ANGELUS OAKS     N/A     49  27  41 CALM      29.71S
PINE COVE        N/A     52  30  42 N3        29.68S

$$

SOUTHERN DESERT INCLUDING THE COACHELLA VALLEY

CITY           SKY/WX    TMP DP  RH WIND       PRES   REMARKS
PALM SPRINGS   CLEAR     74  47  38 CALM      29.71S
THOUSAND PALMS   N/A     78  45  30 NW6       29.67R
PALM DESERT      N/A     71  52  51 CALM        N/A
THERMAL        CLEAR     62  49  62 CALM      29.66R
BLYTHE         CLEAR     72  41  32 CALM      29.70R
IMPERIAL AP    CLEAR     76  45  33 SW8       29.67R
EL CENTRO NAS  CLEAR     76  44  32 SW8       29.67R
YUMA AZ        CLEAR     78  51  38 E5        29.69S

$$

UPPER DESERT

CITY           SKY/WX    TMP DP  RH WIND       PRES   REMARKS
VICTORVILLE AP CLEAR     64  37  36 SW9       29.85R
HESPERIA         N/A     60  42  51 CALM      29.86S
APPLE VALLEY     N/A     59  39  46 CALM      29.95R
PALMDALE       CLEAR     66  39  37 W14       29.84S
LANCASTER      CLEAR     65  47  52 W17       29.83R
EDWARDS AFB    CLEAR     65  45  48 W16       29.79S
DAGGETT        CLEAR     67  38  34 W7        29.78S
29 PALMS N     CLEAR     69  39  33 NW5       29.85R
NEEDLES        CLEAR     74  37  26 W7        29.71S

$$

REGIONAL REPORTS

CITY           SKY/WX    TMP DP  RH WIND       PRES   REMARKS
SANTA BARBARA  CLEAR     61  55  81 NE7       29.74S
SANDBERG       CLEAR     58  45  62 NW28G35   29.93F
MT. WILSON       N/A     55  34  44 S2          N/A
LAS VEGAS NV   CLEAR     70  36  28 SW6       29.74R
PHOENIX AZ     CLEAR     72  51  47 E8        29.75S
TIJUANA        CLEAR     64  59  82 CALM      29.81S
ENSENADA NW      N/A     66  32  28 CALM      29.77S

$$

OFFSHORE ISLANDS

CITY           SKY/WX    TMP DP  RH WIND       PRES   REMARKS
CATALINA ARPT  CLEAR     66  48  52 E3        29.81S
SAN NICOLAS IS PTCLDY   N/A N/A N/A W21G28    29.76S

$$

MARINE AND OFFSHORE BUOY REPORTS

STATION/POSITION SKY/WX   TEMP    WIND        PRES    SWELL
                          AIR SEA DIR/SP/G            HT/PER/DIR
                          (F)     (DEG/KT/KT) (MB)    (FT/S/D)
TANNER BANKS               65 69  300/ 16/ 19 1008.7F   7/320/ 8
S CLEMENTE BASIN           69 72  270/  6/  8 1008.0S   3/290/ 7
SAN NICOLAS IS.               65                N/A     2/300/13
SO. S. ROSA ISLA           62 63  310/ 19/ 23 1007.4F   3/11
W. S. BARBARA CH           60 62  320/ 19/ 23 1006.9F   5/310/ 8
S PEDRO CHANNEL               71                N/A     2/250/11
DANA POINT                    70                N/A     2/180/11
CMP PENDLETON NS              68                N/A     2/220/22
OCEANSIDE OFFSHR              69                N/A     2/230/17
TORREY PINES OTR              73                N/A     2/230/13
LA JOLLA 1                 69 72  150/  3/  5 1008.5R
MISSION BAY BUOY              72                N/A     2/250/13
SAN DIEGO BAY                 74              1008.8F
POINT LOMA SOUTH              72                N/A     2/220/17

$$



USA.gov is the U.S. government's official web portal to all federal, state and local government web resources and services.